CZ-6A DEB, 61119

Orbit data source: Space-Track

CZ-6A DEB, 61119 is space debris in LEO originally from a launch on Tue, 06 Aug 2024 UTC launched from the Taiyaun Space Center, China (TSC). Debris objects in space refer to the collection of defunct objects orbiting the Earth. Examples of debris include non-operational satellites, rocket bodies, and fragments generated from explosions, collisions, or faulty payload assembly.

Loading next visibility...
Identifier
61119, 2024-140PM
Orbit
LEO
Country
Flag of CNCN / PRC
Related business
Manufacturer
SAST
Mission
Spacecraft
Bus & Motor
Unknown
Mass
Unknown
Launch date (UTC)
2024-08-06 (2 years ago)
Launch vehicle
Unknown
Launch site
Taiyaun Space Center, China (TSC)
Object type
Payload
Rocket body
Debris
Shape & HBR
Unknown shape, 0.1 m
Radar Cross Section
Small (<0.1 m²)

Expand to show TLE details & history
Last TLE update: 17 hours ago

TLE from 17 hours ago
0 CZ-6A DEB
1 61119U 24140PM  26171.28395339  .00039107  00000-0  33573-2 0  9991
2 61119  89.0299 270.7595 0052639 178.2410 181.9018 14.96220011 98663
Epoch: 2026-06-20T06:48Z
TLE epoch observation values (Epoch: 2026-06-20T06:48:53.572Z)
Latitude
-0.00005°
Longitude
-99.96451°
Altitude
618.358 km
Speed
7.53 km/s
True Right ascension
18h 03m 02s
True Declination
0° 00' 00"
Sunlit
Object was in full shadow at epoch
Visualization orbit readout
Latitude
Unknown
Longitude
Unknown
Altitude
Unknown
Speed
Unknown
Apparent Right ascension
Unknown
Apparent Declination
Unknown
Sunlit
N/A
Visualization observer readout
Local Sidereal Time
10:20:30
Azimuth
Unknown
Elevation
Unknown
Doppler factor
Unknown
Orbital elements
Apogee altitude
612.034 km
Perigee altitude
538.828 km
Semi-major axis
6,953.568 km
Eccentricity
0.00526
Inclination
89.0299°
RAAN
270.7595°
Arg. of periapsis
178.241°
True anomaly
181.88191°
Mean anomaly
181.9018°
Eccentric anomaly
181.89184°
Mean motion
3.7431 °/min
Orbital period
96.18 mins
BSTAR
0.0033573
Loading maneuver chart data...
Computing Atmospheric mass density...
Loading historical data...
Loading historical data...
Loading historical data...
Loading historical data...
Loading historical data...
Loading historical data...
Loading historical data...

Documentation

Showing up to 5 results
|